Flag for Nigeria Weather past 2 weeks in Lagos, Nigeria

Now
93 °F

Partly sunny.


Feels Like: 107 °F
Forecast: 75 / 94 °F
Wind: 6 mph from West

Location: Lagos / Ikeja

Current Time: Jan 27, 2015 at 2:14:13 PM

Latest Report: Jan 27, 2015 at 1:00 PM


Visibility: N/A

Pressure: 29.86 "Hg

Humidity: 59%

Dew point: 77 °F

Location of LagosLocation

Historic Weather in Lagos — Graph

°F

Lagos temperature yesterday

Maximum temperature yesterday: 91 °F (at 12:00 PM)
Minimum temperature yesterday: 79 °F (at 2:00 AM)
Average temperature yesterday: 84 °F

Past Weeks' High & Low Weather Summary

 TemperatureHumidityPressure
High93 °F (Jan 22, 3:00 PM)100% (Jan 25, 5:00 AM)29.95 "Hg (Jan 25, 5:00 AM)
Low77 °F (Jan 21, 5:00 AM)56% (Jan 22, 3:00 PM)29.80 "Hg (Jan 20, 3:00 PM)
Average84 °F82%29.87 "Hg
* Reported Jan 20 2:00 PM — Jan 27 1:00 PM, Lagos, Weather by CustomWeather, © 2014

Note: Actual official high and low records may vary slightly from our data, if they occured in-between our weather recording intervals... More about our weather records

Advertising

Lagos weather history for previous 24 hours

 ConditionsComfort  
Time TempWeatherWind HumidityBarometerVisibility
1:00 PM
Jan 27
93 °FPartly sunny.6 mph59%29.86 "HgN/A
12:00 PM90 °FPartly sunny.3 mph67%29.89 "HgN/A
11:00 AM88 °FPartly sunny.3 mph70%29.92 "HgN/A
10:00 AM86 °FScattered clouds.7 mph79%29.92 "HgN/A
9:00 AM82 °FPassing clouds.2 mph89%29.92 "Hg4 mi
8:00 AM79 °FFog.2 mph100%29.89 "Hg3 mi
7:00 AM79 °FPassing clouds.No wind94%29.89 "Hg4 mi
6:00 AM79 °FPassing clouds.No wind94%29.89 "Hg5 mi
5:00 AM79 °FPassing clouds.No wind94%29.86 "HgN/A
4:00 AM79 °FPassing clouds.5 mph94%29.86 "HgN/A
3:00 AM79 °FPassing clouds.6 mph94%29.89 "HgN/A
2:00 AM79 °FPassing clouds.9 mph94%29.89 "HgN/A
1:00 AM79 °FPassing clouds.10 mph94%29.89 "HgN/A
12:00 AM79 °FPassing clouds.6 mph94%29.89 "HgN/A
10:00 PM
Jan 26
81 °FPassing clouds.3 mph89%29.92 "HgN/A
9:00 PM81 °FPassing clouds.3 mph89%29.89 "HgN/A
8:00 PM82 °FPassing clouds.9 mph84%29.86 "HgN/A
7:00 PM84 °FPassing clouds.8 mph84%29.83 "HgN/A
6:00 PM86 °FPassing clouds.10 mph79%29.83 "HgN/A
4:00 PM90 °FScattered clouds.21 mph67%29.83 "HgN/A
3:00 PM91 °FScattered clouds.17 mph63%29.83 "HgN/A
2:00 PM91 °FScattered clouds.13 mph63%29.86 "HgN/A
Weather by CustomWeather, © 2014

See weather overviewHow to use our weather pages